�������C�����ː����j�^�v���󋵏��
Date,Time,Cs137(Bq/L),Cs134(Bq/L),�S��(Bq/L)
2018/02/25,00:00,0.86,0.047,ND
2018/02/25,00:10,0.86,0.051,8.8
2018/02/25,00:20,0.87,0.050,ND
2018/02/25,00:30,0.87,0.052,ND
2018/02/25,00:40,0.88,0.054,ND
2018/02/25,00:50,0.89,0.043,ND
2018/02/25,01:00,0.90,0.049,ND
2018/02/25,01:10,0.91,0.049,ND
2018/02/25,01:20,0.90,0.060,ND
2018/02/25,01:30,0.89,0.060,ND
2018/02/25,01:40,0.87,0.060,ND
2018/02/25,01:50,0.87,0.053,ND
2018/02/25,02:00,0.86,0.050,ND
2018/02/25,02:10,0.85,0.050,ND
2018/02/25,02:20,0.86,0.035,ND
2018/02/25,02:30,0.87,0.028,ND
2018/02/25,02:40,0.88,0.029,ND
2018/02/25,02:50,0.89,0.036,ND
2018/02/25,03:00,0.88,0.034,ND
2018/02/25,03:10,0.85,0.035,ND
2018/02/25,03:20,0.86,0.041,ND
2018/02/25,03:30,0.89,0.035,ND
2018/02/25,03:40,0.91,0.027,ND
2018/02/25,03:50,0.88,0.030,ND
2018/02/25,04:00,0.94,ND,ND
2018/02/25,04:10,0.95,ND,ND
2018/02/25,04:20,0.95,ND,ND
2018/02/25,04:30,0.95,ND,ND
2018/02/25,04:40,0.95,ND,ND
2018/02/25,04:50,0.98,ND,ND
2018/02/25,05:00,0.92,0.030,ND
2018/02/25,05:10,0.94,0.029,ND
2018/02/25,05:20,0.91,0.043,10
2018/02/25,05:30,0.88,0.045,11
2018/02/25,05:40,0.87,0.056,10
2018/02/25,05:50,0.86,0.060,ND
2018/02/25,06:00,0.86,0.059,8.8
2018/02/25,06:10,0.83,0.060,9.9
2018/02/25,06:20,0.83,0.056,ND
2018/02/25,06:30,0.86,0.048,8.8
2018/02/25,06:40,0.87,0.040,ND
2018/02/25,06:50,0.88,0.031,ND
2018/02/25,07:00,0.86,0.033,ND
2018/02/25,07:10,0.88,0.033,ND
2018/02/25,07:20,0.90,0.032,ND
2018/02/25,07:30,0.88,0.025,ND
2018/02/25,07:40,0.86,0.027,ND
2018/02/25,07:50,0.87,ND,ND
2018/02/25,08:00,0.90,ND,ND
2018/02/25,08:10,0.93,ND,ND
2018/02/25,08:20,0.92,ND,ND
2018/02/25,08:30,0.95,ND,ND
2018/02/25,08:40,0.91,0.030,ND
2018/02/25,08:50,0.93,ND,ND
2018/02/25,09:00,0.86,0.040,ND
2018/02/25,09:10,0.84,0.040,ND
2018/02/25,09:20,0.85,0.037,ND
2018/02/25,09:30,0.83,0.034,9.9
2018/02/25,09:40,0.81,0.028,12
2018/02/25,09:50,0.85,ND,8.9
2018/02/25,10:00,0.86,ND,ND
2018/02/25,10:10,0.84,0.030,ND
2018/02/25,10:20,0.84,0.032,ND
2018/02/25,10:30,0.85,0.037,ND
2018/02/25,10:40,0.84,0.043,ND
2018/02/25,10:50,0.83,0.047,ND
2018/02/25,11:00,0.81,0.043,ND
2018/02/25,11:10,0.79,0.035,ND
2018/02/25,11:20,0.78,0.039,ND
2018/02/25,11:30,0.76,0.037,ND
2018/02/25,11:40,0.76,0.042,ND
2018/02/25,11:50,0.75,0.050,ND
2018/02/25,12:00,0.78,0.041,ND
2018/02/25,12:10,0.78,0.043,ND
2018/02/25,12:20,0.80,0.040,ND
2018/02/25,12:30,0.82,0.040,ND
2018/02/25,12:40,0.84,0.033,ND
2018/02/25,12:50,0.84,0.030,ND
2018/02/25,13:00,0.83,0.036,ND
2018/02/25,13:10,0.84,0.036,ND
2018/02/25,13:20,0.86,0.038,ND
2018/02/25,13:30,0.86,0.035,ND
2018/02/25,13:40,0.87,0.038,ND
2018/02/25,13:50,0.86,0.050,ND
2018/02/25,14:00,0.87,0.042,ND
2018/02/25,14:10,0.88,0.042,ND
2018/02/25,14:20,0.86,0.041,ND
2018/02/25,14:30,0.87,0.056,ND
2018/02/25,14:40,0.88,0.059,ND
2018/02/25,14:50,0.88,0.050,ND
2018/02/25,15:00,0.89,0.049,ND
2018/02/25,15:10,0.89,0.060,ND
2018/02/25,15:20,0.91,0.057,ND
2018/02/25,15:30,0.92,0.047,ND
2018/02/25,15:40,0.92,0.044,ND
2018/02/25,15:50,0.92,0.045,9.0
2018/02/25,16:00,0.92,0.052,ND
2018/02/25,16:10,0.90,0.045,ND
2018/02/25,16:20,0.89,0.047,ND
2018/02/25,16:30,0.86,0.051,8.9
2018/02/25,16:40,0.87,0.040,ND
2018/02/25,16:50,0.84,0.041,ND
2018/02/25,17:00,0.83,0.042,ND
2018/02/25,17:10,0.84,0.037,ND
2018/02/25,17:20,0.85,0.033,ND
2018/02/25,17:30,0.84,0.036,ND
2018/02/25,17:40,0.82,0.042,ND
2018/02/25,17:50,0.84,0.042,ND
2018/02/25,18:00,0.82,0.033,ND
2018/02/25,18:10,0.81,0.033,9.0
2018/02/25,18:20,0.81,0.033,9.3
2018/02/25,18:30,0.80,0.031,ND
2018/02/25,18:40,0.84,0.027,ND
2018/02/25,18:50,0.86,0.031,ND
2018/02/25,19:00,0.88,0.033,ND
2018/02/25,19:10,0.92,0.029,8.8
2018/02/25,19:20,0.97,ND,ND
2018/02/25,19:30,0.94,0.026,ND
2018/02/25,19:40,0.98,ND,ND
2018/02/25,19:50,0.98,ND,ND
2018/02/25,20:00,1.0,ND,ND
2018/02/25,20:10,0.93,0.028,ND
2018/02/25,20:20,0.91,0.042,ND
2018/02/25,20:30,0.92,0.037,ND
2018/02/25,20:40,0.90,0.042,ND
2018/02/25,20:50,0.88,0.047,ND
2018/02/25,21:00,0.84,0.053,ND
2018/02/25,21:10,0.85,0.047,ND
2018/02/25,21:20,0.84,0.044,ND
2018/02/25,21:30,0.84,0.048,ND
2018/02/25,21:40,0.84,0.045,ND
2018/02/25,21:50,0.83,0.046,ND
2018/02/25,22:00,0.86,0.038,ND
2018/02/25,22:10,0.85,0.047,ND
2018/02/25,22:20,0.87,0.036,ND
2018/02/25,22:30,0.87,0.036,ND
2018/02/25,22:40,0.90,ND,ND
2018/02/25,22:50,0.87,ND,ND
2018/02/25,23:00,0.88,ND,ND
2018/02/25,23:10,0.89,ND,ND
2018/02/25,23:20,0.90,ND,ND
2018/02/25,23:30,0.89,ND,ND
2018/02/25,23:40,0.90,ND,ND
2018/02/25,23:50,0.92,ND,ND
